Terminal Aerodrome Forecast
Issued by NWS Albany, NY

Home | Current Version | Previous Version | Text Only | Print | Product List | Glossary On
Versions: 1 2 3 4 5 6 7 8 9 10 11 12 13 14 15 16 17
000
FTUS41 KALY 072334
TAFPOU
TAF
KPOU 072334Z 0800/0824 00000KT 1SM BR SCT040
      TEMPO 0800/0804 23003KT 5SM BR SCT040 BKN060
     FM081400 23008KT P6SM OVC050=

USA.gov is the U.S. government's official web portal to all federal, state and local government web resources and services.